QPF
0.15 0.11 0.06 0.06 0.04 0.04 0.04 0.04 0.03 0.02 0.02 0.02 0.01 0.01 0.01 0.01 0.01 0.01 0.01 0.01 0.00 0.02 0.05 0.10 0.13 0.12 0.12 0.15 0.16 0.13 0.12 0.09 0.08 0.07 0.06 0.05 0.05 0.05 0.04 0.04 0.04 0.03 0.03
0.17 0.12 0.09 0.09 0.08 0.08 0.08 0.06 0.04 0.04 0.04 0.05 0.04 0.03 0.02 0.02 0.02 0.02 0.02 0.02 0.01 0.01 0.03 0.09 0.13 0.15 0.17 0.21 0.20 0.18 0.15 0.14 0.12 0.11 0.08 0.06 0.05 0.05 0.04 0.03 0.03 0.03 0.02
0.14 0.11 0.12 0.12 0.11 0.11 0.10 0.08 0.07 0.07 0.06 0.06 0.06 0.04 0.03 0.03 0.04 0.03 0.03 0.03 0.03 0.02 0.03 0.06 0.10 0.13 0.15 0.18 0.19 0.20 0.21 0.20 0.17 0.14 0.11 0.08 0.06 0.05 0.04 0.04 0.04 0.03 0.03
0.16 0.17 0.17 0.14 0.13 0.12 0.12 0.11 0.11 0.11 0.09 0.07 0.06 0.04 0.03 0.04 0.04 0.03 0.03 0.03 0.04 0.04 0.04 0.04 0.05 0.08 0.11 0.15 0.18 0.21 0.24 0.23 0.22 0.19 0.15 0.12 0.10 0.10 0.09 0.06 0.05 0.05 0.04
0.22 0.21 0.20 0.16 0.14 0.13 0.13 0.12 0.11 0.11 0.11 0.09 0.07 0.05 0.03 0.03 0.04 0.03 0.03 0.02 0.03 0.04 0.04 0.03 0.02 0.04 0.06 0.10 0.13 0.17 0.21 0.23 0.25 0.23 0.22 0.20 0.18 0.16 0.14 0.11 0.08 0.06 0.06
0.26 0.25 0.22 0.18 0.16 0.14 0.13 0.11 0.11 0.10 0.10 0.09 0.07 0.05 0.04 0.03 0.03 0.03 0.02 0.02 0.02 0.02 0.02 0.02 0.03 0.03 0.03 0.05 0.07 0.10 0.14 0.18 0.22 0.25 0.26 0.26 0.24 0.23 0.21 0.19 0.15 0.12 0.09
0.22 0.21 0.20 0.16 0.16 0.14 0.10 0.08 0.08 0.08 0.07 0.06 0.06 0.06 0.05 0.04 0.02 0.02 0.01 0.01 0.01 0.01 0.01 0.02 0.03 0.03 0.03 0.03 0.03 0.06 0.10 0.15 0.18 0.20 0.22 0.25 0.27 0.28 0.27 0.24 0.21 0.17 0.14
0.23 0.23 0.21 0.16 0.14 0.11 0.08 0.07 0.06 0.05 0.04 0.03 0.05 0.05 0.06 0.04 0.03 0.01 0.01 0.01 0.01 0.01 0.01 0.02 0.02 0.03 0.03 0.03 0.03 0.04 0.07 0.09 0.14 0.18 0.22 0.25 0.25 0.26 0.26 0.26 0.26 0.25 0.23
0.19 0.18 0.18 0.16 0.12 0.09 0.06 0.05 0.04 0.04 0.04 0.03 0.03 0.04 0.06 0.07 0.05 0.03 0.01 0.01 0.01 0.01 0.01 0.01 0.02 0.02 0.03 0.03 0.03 0.04 0.05 0.06 0.09 0.13 0.18 0.23 0.25 0.26 0.28 0.28 0.28 0.28 0.27
0.19 0.16 0.14 0.13 0.12 0.09 0.06 0.05 0.03 0.03 0.03 0.03 0.02 0.02 0.02 0.03 0.03 0.04 0.03 0.02 0.01 0.01 0.01 0.01 0.01 0.01 0.01 0.02 0.03 0.03 0.03 0.04 0.06 0.10 0.15 0.19 0.22 0.24 0.24 0.26 0.27 0.27 0.27
0.21 0.18 0.16 0.13 0.11 0.08 0.05 0.03 0.02 0.01 0.01 0.02 0.02 0.02 0.01 0.01 0.01 0.02 0.02 0.01 0.01 0.01 0.01 0.00 0.00 0.01 0.01 0.02 0.02 0.03 0.04 0.05 0.07 0.10 0.11 0.12 0.16 0.20 0.23 0.24 0.23 0.23 0.22
0.18 0.15 0.11 0.08 0.06 0.04 0.03 0.02 0.01 0.01 0.01 0.01 0.01 0.01 0.01 0.01 0.01 0.01 0.01 0.01 0.01 0.00 0.00 0.00 0.00 0.01 0.01 0.01 0.03 0.05 0.05 0.06 0.08 0.08 0.09 0.09 0.10 0.12 0.15 0.19 0.21 0.23 0.23
0.10 0.09 0.07 0.05 0.04 0.03 0.02 0.02 0.01 0.01 0.01 0.00 0.00 0.00 0.00 0.00 0.00 0.01 0.01 0.01 0.01 0.01 0.01 0.00 0.00 0.01 0.01 0.01 0.02 0.04 0.04 0.05 0.07 0.07 0.08 0.10 0.11 0.11 0.12 0.13 0.15 0.16 0.17
0.06 0.05 0.05 0.04 0.04 0.03 0.02 0.02 0.01 0.01 0.01 0.00 0.00 0.00 0.00 0.00 0.00 0.00 0.00 0.01 0.01 0.01 0.01 0.00 0.01 0.01 0.01 0.01 0.03 0.03 0.03 0.05 0.06 0.06 0.06 0.06 0.07 0.08 0.09 0.10 0.11 0.12 0.11
0.05 0.04 0.03 0.02 0.01 0.01 0.02 0.01 0.01 0.01 0.01 0.00 0.00 0.00 0.00 0.00 0.00 0.00 0.00 0.00 0.00 0.00 0.01 0.01 0.01 0.01 0.01 0.01 0.02 0.02 0.02 0.03 0.04 0.04 0.05 0.05 0.05 0.06 0.07 0.07 0.08 0.08 0.08
0.03 0.02 0.02 0.01 0.01 0.01 0.00 0.00 0.00 0.00 0.00 0.00 0.00 0.00 0.00 0.00 0.00 0.00 0.00 0.00 0.00 0.00 0.00 0.01 0.01 0.01 0.01 0.01 0.01 0.02 0.02 0.02 0.02 0.03 0.03 0.03 0.03 0.03 0.03 0.03 0.04 0.04 0.05
0.01 0.01 0.01 0.01 0.01 0.01 0.01 0.00 0.00 0.00 0.00 0.00 0.00 0.00 0.00 0.00 0.00 0.00 0.00 0.00 0.00 0.00 0.00 0.00 0.01 0.01 0.01 0.01 0.01 0.01 0.01 0.02 0.02 0.01 0.01 0.01 0.01 0.01 0.01 0.01 0.01 0.02 0.02
0.00 0.00 0.00 0.00 0.00 0.00 0.00 0.00 0.00 0.00 0.00 0.00 0.00 0.00 0.00 0.00 0.00 0.00 0.00 0.00 0.00 0.00 0.00 0.00 0.00 0.00 0.00 0.01 0.01 0.01 0.01 0.01 0.01 0.01 0.01 0.01 0.01 0.01 0.01 0.00 0.01 0.01 0.01
0.00 0.00 0.00 0.00 0.00 0.00 0.00 0.00 0.00 0.00 0.00 0.00 0.00 0.00 0.00 0.00 0.00 0.00 0.00 0.00 0.00 0.00 0.00 0.00 0.00 0.00 0.00 0.00 0.01 0.01 0.01 0.01 0.01 0.00 0.00 0.00 0.00 0.00 0.00 0.00 0.00 0.00 0.00
0.00 0.00 0.00 0.00 0.00 0.00 0.00 0.00 0.00 0.00 0.00 0.00 0.00 0.00 0.00 0.00 0.00 0.00 0.00 0.00 0.00 0.00 0.00 0.00 0.00 0.00 0.00 0.01 0.01 0.01 0.01 0.01 0.01 0.00 0.01 0.00 0.00 0.00 0.00 0.00 0.00 0.00 0.00
0.00 0.00 0.00 0.00 0.00 0.00 0.00 0.00 0.00 0.00 0.00 0.00 0.00 0.00 0.00 0.00 0.00 0.00 0.00 0.00 0.00 0.01 0.00 0.00 0.00 0.01 0.01 0.02 0.02 0.02 0.01 0.01 0.02 0.01 0.02 0.02 0.02 0.04 0.03 0.01 0.00 0.00 0.00
0.00 0.00 0.00 0.00 0.00 0.00 0.00 0.00 0.00 0.00 0.00 0.00 0.00 0.00 0.00 0.00 0.00 0.00 0.00 0.00 0.00 0.00 0.00 0.01 0.01 0.01 0.02 0.02 0.02 0.02 0.02 0.02 0.02 0.02 0.02 0.02 0.02 0.04 0.03 0.02 0.01 0.00 0.00
0.00 0.00 0.00 0.00 0.00 0.00 0.00 0.00 0.00 0.00 0.00 0.00 0.00 0.01 0.00 0.00 0.00 0.00 0.00 0.00 0.00 0.00 0.00 0.00 0.01 0.02 0.02 0.02 0.02 0.02 0.03 0.03 0.03 0.02 0.01 0.02 0.03 0.03 0.02 0.00 0.00 0.00 0.00
0.00 0.00 0.00 0.00 0.00 0.00 0.00 0.00 0.00 0.00 0.00 0.00 0.00 0.00 0.00 0.01 0.00 0.00 0.00 0.00 0.01 0.01 0.00 0.00 0.01 0.01 0.01 0.01 0.01 0.01 0.02 0.02 0.03 0.04 0.02 0.03 0.03 0.03 0.02 0.03 0.01 0.00 0.00
0.01 0.00 0.00 0.00 0.01 0.00 0.00 0.00 0.00 0.00 0.00 0.00 0.00 0.00 0.00 0.00 0.00 0.00 0.00 0.01 0.02 0.02 0.00 0.00 0.00 0.00 0.01 0.00 0.00 0.02 0.04 0.04 0.05 0.05 0.03 0.03 0.03 0.03 0.03 0.04 0.02 0.00 0.00
0.01 0.00 0.01 0.01 0.00 0.00 0.00 0.00 0.00 0.00 0.00 0.00 0.00 0.00 0.00 0.00 0.00 0.00 0.00 0.01 0.02 0.02 0.01 0.01 0.02 0.02 0.03 0.03 0.02 0.03 0.06 0.05 0.05 0.06 0.04 0.03 0.04 0.04 0.04 0.04 0.04 0.04 0.03
MSLP
1015.24 1015.38 1015.57 1015.82 1016.13 1016.49 1016.85 1017.20 1017.49 1017.70 1017.80 1017.79 1017.70 1017.56 1017.40 1017.28 1017.22 1017.26 1017.40 1017.63 1017.93 1018.26 1018.59 1018.89 1019.14 1019.33 1019.46 1019.55 1019.59 1019.62 1019.64 1019.67 1019.71 1019.76 1019.83 1019.90 1019.98 1020.07 1020.15 1020.23 1020.31 1020.38 1020.45
1015.10 1015.22 1015.38 1015.60 1015.89 1016.22 1016.58 1016.95 1017.28 1017.55 1017.74 1017.85 1017.87 1017.83 1017.76 1017.69 1017.64 1017.66 1017.74 1017.89 1018.09 1018.33 1018.58 1018.82 1019.03 1019.19 1019.31 1019.38 1019.43 1019.45 1019.47 1019.50 1019.54 1019.59 1019.67 1019.76 1019.87 1019.98 1020.09 1020.20 1020.29 1020.37 1020.44
1015.04 1015.15 1015.30 1015.51 1015.76 1016.08 1016.44 1016.81 1017.19 1017.53 1017.82 1018.05 1018.20 1018.29 1018.32 1018.33 1018.32 1018.32 1018.35 1018.42 1018.52 1018.65 1018.80 1018.95 1019.08 1019.19 1019.27 1019.33 1019.36 1019.38 1019.40 1019.44 1019.48 1019.56 1019.65 1019.77 1019.90 1020.04 1020.18 1020.31 1020.42 1020.50 1020.56
1015.02 1015.15 1015.31 1015.50 1015.74 1016.04 1016.39 1016.77 1017.18 1017.59 1017.97 1018.32 1018.61 1018.84 1018.99 1019.09 1019.14 1019.15 1019.16 1019.16 1019.17 1019.19 1019.23 1019.27 1019.32 1019.36 1019.39 1019.42 1019.44 1019.46 1019.48 1019.53 1019.59 1019.68 1019.80 1019.93 1020.08 1020.24 1020.40 1020.53 1020.65 1020.73 1020.77
1015.02 1015.19 1015.36 1015.56 1015.80 1016.08 1016.41 1016.79 1017.21 1017.67 1018.14 1018.59 1019.01 1019.36 1019.65 1019.85 1019.97 1020.03 1020.03 1020.00 1019.94 1019.88 1019.82 1019.76 1019.72 1019.69 1019.68 1019.67 1019.68 1019.69 1019.73 1019.79 1019.87 1019.98 1020.11 1020.25 1020.41 1020.57 1020.72 1020.84 1020.94 1021.00 1021.03
1015.02 1015.24 1015.46 1015.67 1015.91 1016.17 1016.49 1016.86 1017.28 1017.76 1018.28 1018.81 1019.32 1019.79 1020.18 1020.49 1020.70 1020.81 1020.84 1020.80 1020.72 1020.60 1020.48 1020.36 1020.25 1020.17 1020.11 1020.08 1020.08 1020.10 1020.15 1020.23 1020.32 1020.44 1020.57 1020.70 1020.84 1020.97 1021.09 1021.18 1021.25 1021.28 1021.27
1015.05 1015.34 1015.60 1015.85 1016.09 1016.35 1016.65 1016.99 1017.40 1017.88 1018.41 1018.97 1019.54 1020.07 1020.55 1020.94 1021.23 1021.40 1021.48 1021.47 1021.39 1021.26 1021.12 1020.96 1020.83 1020.72 1020.64 1020.61 1020.61 1020.64 1020.71 1020.80 1020.90 1021.01 1021.13 1021.24 1021.33 1021.41 1021.47 1021.51 1021.52 1021.50 1021.45
1015.16 1015.52 1015.84 1016.12 1016.38 1016.64 1016.92 1017.23 1017.61 1018.05 1018.56 1019.12 1019.69 1020.24 1020.75 1021.19 1021.53 1021.76 1021.89 1021.92 1021.88 1021.78 1021.66 1021.52 1021.39 1021.29 1021.23 1021.20 1021.22 1021.27 1021.35 1021.45 1021.55 1021.65 1021.73 1021.79 1021.82 1021.83 1021.81 1021.77 1021.71 1021.63 1021.54
1015.41 1015.84 1016.22 1016.54 1016.82 1017.08 1017.34 1017.62 1017.96 1018.35 1018.80 1019.30 1019.83 1020.35 1020.84 1021.28 1021.63 1021.90 1022.07 1022.15 1022.16 1022.12 1022.05 1021.96 1021.88 1021.82 1021.79 1021.80 1021.84 1021.92 1022.01 1022.11 1022.20 1022.27 1022.30 1022.30 1022.26 1022.19 1022.09 1021.96 1021.82 1021.67 1021.52
1015.88 1016.36 1016.77 1017.12 1017.42 1017.68 1017.93 1018.18 1018.47 1018.80 1019.18 1019.60 1020.04 1020.48 1020.91 1021.29 1021.62 1021.88 1022.07 1022.20 1022.26 1022.29 1022.28 1022.27 1022.25 1022.25 1022.28 1022.32 1022.40 1022.49 1022.59 1022.68 1022.75 1022.79 1022.78 1022.72 1022.61 1022.45 1022.27 1022.06 1021.85 1021.64 1021.43
1016.58 1017.07 1017.50 1017.86 1018.17 1018.43 1018.66 1018.89 1019.14 1019.40 1019.70 1020.02 1020.36 1020.69 1021.02 1021.32 1021.58 1021.81 1021.99 1022.13 1022.24 1022.33 1022.39 1022.45 1022.50 1022.56 1022.64 1022.72 1022.82 1022.92 1023.02 1023.10 1023.15 1023.15 1023.10 1022.99 1022.82 1022.61 1022.36 1022.09 1021.82 1021.54 1021.29
1017.47 1017.95 1018.37 1018.71 1019.00 1019.25 1019.48 1019.69 1019.90 1020.11 1020.34 1020.57 1020.80 1021.02 1021.23 1021.43 1021.60 1021.76 1021.91 1022.05 1022.18 1022.30 1022.41 1022.53 1022.64 1022.75 1022.86 1022.97 1023.08 1023.18 1023.26 1023.32 1023.35 1023.32 1023.24 1023.09 1022.89 1022.65 1022.36 1022.06 1021.75 1021.44 1021.13
1018.50 1018.93 1019.29 1019.60 1019.86 1020.08 1020.29 1020.48 1020.67 1020.85 1021.03 1021.19 1021.33 1021.45 1021.56 1021.65 1021.73 1021.82 1021.91 1022.02 1022.14 1022.27 1022.41 1022.55 1022.69 1022.82 1022.94 1023.05 1023.15 1023.24 1023.30 1023.33 1023.33 1023.28 1023.18 1023.03 1022.83 1022.58 1022.29 1021.98 1021.66 1021.33 1021.00
1019.58 1019.92 1020.20 1020.44 1020.65 1020.84 1021.03 1021.20 1021.38 1021.55 1021.69 1021.81 1021.89 1021.94 1021.97 1021.97 1021.98 1021.99 1022.02 1022.08 1022.17 1022.28 1022.41 1022.55 1022.68 1022.81 1022.91 1023.00 1023.07 1023.12 1023.15 1023.15 1023.13 1023.07 1022.96 1022.82 1022.64 1022.42 1022.16 1021.88 1021.57 1021.25 1020.91
1020.61 1020.85 1021.03 1021.19 1021.33 1021.48 1021.63 1021.80 1021.97 1022.13 1022.27 1022.38 1022.44 1022.46 1022.44 1022.39 1022.33 1022.29 1022.26 1022.27 1022.31 1022.38 1022.48 1022.58 1022.67 1022.76 1022.82 1022.86 1022.88 1022.88 1022.87 1022.84 1022.79 1022.72 1022.63 1022.51 1022.37 1022.19 1021.99 1021.75 1021.48 1021.18 1020.85
1021.53 1021.66 1021.75 1021.82 1021.90 1021.99 1022.11 1022.26 1022.43 1022.60 1022.75 1022.86 1022.93 1022.95 1022.92 1022.85 1022.77 1022.68 1022.61 1022.57 1022.56 1022.57 1022.61 1022.65 1022.68 1022.71 1022.71 1022.69 1022.65 1022.59 1022.52 1022.45 1022.38 1022.31 1022.23 1022.14 1022.04 1021.92 1021.78 1021.60 1021.39 1021.13 1020.82
1022.30 1022.35 1022.36 1022.36 1022.38 1022.42 1022.51 1022.64 1022.80 1022.97 1023.13 1023.27 1023.36 1023.40 1023.39 1023.33 1023.24 1023.14 1023.04 1022.96 1022.89 1022.85 1022.81 1022.78 1022.75 1022.70 1022.63 1022.54 1022.43 1022.32 1022.20 1022.08 1021.98 1021.90 1021.82 1021.75 1021.69 1021.62 1021.54 1021.42 1021.27 1021.05 1020.78
1022.93 1022.93 1022.90 1022.86 1022.83 1022.84 1022.89 1022.99 1023.13 1023.30 1023.48 1023.63 1023.75 1023.82 1023.84 1023.80 1023.73 1023.63 1023.51 1023.39 1023.28 1023.18 1023.08 1022.98 1022.87 1022.75 1022.61 1022.45 1022.28 1022.11 1021.94 1021.79 1021.65 1021.54 1021.46 1021.39 1021.35 1021.31 1021.27 1021.20 1021.10 1020.94 1020.71
1023.43 1023.44 1023.40 1023.35 1023.31 1023.29 1023.32 1023.39 1023.50 1023.65 1023.82 1023.98 1024.12 1024.22 1024.26 1024.25 1024.20 1024.10 1023.97 1023.83 1023.68 1023.53 1023.37 1023.21 1023.04 1022.85 1022.65 1022.44 1022.22 1022.00 1021.79 1021.59 1021.41 1021.26 1021.15 1021.08 1021.03 1021.00 1020.98 1020.94 1020.88 1020.76 1020.58
1023.84 1023.89 1023.89 1023.87 1023.83 1023.81 1023.81 1023.85 1023.94 1024.06 1024.20 1024.35 1024.49 1024.59 1024.65 1024.67 1024.62 1024.53 1024.40 1024.24 1024.06 1023.87 1023.66 1023.45 1023.23 1023.00 1022.76 1022.50 1022.24 1021.98 1021.72 1021.48 1021.26 1021.07 1020.92 1020.80 1020.72 1020.68 1020.65 1020.63 1020.59 1020.51 1020.37
1024.17 1024.29 1024.36 1024.39 1024.39 1024.37 1024.37 1024.38 1024.43 1024.51 1024.61 1024.73 1024.85 1024.95 1025.01 1025.03 1024.99 1024.90 1024.77 1024.59 1024.39 1024.16 1023.92 1023.67 1023.41 1023.15 1022.88 1022.60 1022.31 1022.02 1021.73 1021.44 1021.18 1020.93 1020.73 1020.56 1020.44 1020.35 1020.31 1020.28 1020.25 1020.19 1020.09
1024.44 1024.64 1024.79 1024.88 1024.92 1024.93 1024.92 1024.91 1024.92 1024.96 1025.02 1025.11 1025.19 1025.27 1025.32 1025.33 1025.29 1025.19 1025.04 1024.85 1024.63 1024.38 1024.11 1023.83 1023.55 1023.27 1022.98 1022.68 1022.38 1022.07 1021.76 1021.44 1021.12 1020.83 1020.56 1020.33 1020.15 1020.02 1019.93 1019.88 1019.85 1019.81 1019.73
1024.65 1024.92 1025.13 1025.28 1025.37 1025.41 1025.41 1025.39 1025.37 1025.37 1025.40 1025.44 1025.48 1025.53 1025.56 1025.55 1025.50 1025.39 1025.23 1025.02 1024.77 1024.50 1024.21 1023.91 1023.62 1023.32 1023.03 1022.73 1022.42 1022.10 1021.76 1021.41 1021.06 1020.72 1020.39 1020.11 1019.87 1019.68 1019.55 1019.47 1019.42 1019.38 1019.33
1024.79 1025.11 1025.37 1025.57 1025.70 1025.76 1025.78 1025.76 1025.72 1025.70 1025.69 1025.69 1025.71 1025.72 1025.73 1025.70 1025.62 1025.50 1025.32 1025.09 1024.82 1024.52 1024.22 1023.91 1023.60 1023.29 1023.00 1022.69 1022.38 1022.06 1021.71 1021.34 1020.96 1020.58 1020.21 1019.87 1019.58 1019.34 1019.17 1019.06 1018.99 1018.95 1018.90
1024.88 1025.22 1025.51 1025.74 1025.89 1025.98 1026.01 1025.99 1025.96 1025.92 1025.88 1025.87 1025.86 1025.85 1025.82 1025.77 1025.67 1025.52 1025.32 1025.07 1024.78 1024.47 1024.14 1023.81 1023.50 1023.19 1022.88 1022.58 1022.27 1021.94 1021.59 1021.21 1020.82 1020.41 1020.01 1019.63 1019.30 1019.03 1018.82 1018.67 1018.58 1018.53 1018.49
1024.95 1025.28 1025.57 1025.81 1025.98 1026.09 1026.13 1026.13 1026.09 1026.05 1026.01 1025.98 1025.95 1025.92 1025.87 1025.79 1025.67 1025.50 1025.27 1025.00 1024.69 1024.35 1024.00 1023.66 1023.33 1023.01 1022.71 1022.40 1022.09 1021.77 1021.41 1021.04 1020.63 1020.21 1019.80 1019.40 1019.04 1018.74 1018.50 1018.33 1018.22 1018.15 1018.10
Thickness
5728 5728 5727 5727 5729 5729 5728 5727 5729 5728 5727 5727 5727 5727 5727 5727 5727 5727 5726 5720 5718 5716 5715 5714 5713 5711 5709 5707 5705 5703 5701 5699 5698 5696 5695 5694 5693 5691 5690 5690 5689 5688 5687
5724 5724 5723 5721 5723 5723 5725 5724 5725 5723 5723 5723 5723 5721 5721 5722 5720 5720 5720 5718 5715 5713 5711 5710 5709 5708 5706 5704 5703 5701 5699 5697 5695 5693 5691 5690 5689 5688 5686 5685 5684 5683 5682
5718 5719 5719 5718 5718 5718 5717 5718 5718 5718 5718 5718 5717 5716 5716 5715 5715 5714 5714 5713 5712 5709 5707 5705 5704 5703 5702 5700 5699 5697 5695 5694 5692 5690 5688 5686 5685 5683 5682 5681 5680 5678 5677
5714 5713 5714 5714 5713 5713 5713 5713 5714 5713 5713 5712 5711 5711 5710 5709 5708 5707 5708 5707 5706 5704 5702 5699 5698 5697 5696 5695 5694 5692 5691 5690 5688 5687 5685 5683 5680 5679 5677 5676 5674 5672 5671
5708 5709 5709 5708 5707 5708 5708 5709 5708 5707 5706 5705 5705 5704 5704 5703 5702 5701 5700 5699 5697 5696 5694 5692 5691 5689 5688 5688 5687 5686 5685 5684 5683 5681 5680 5678 5676 5674 5672 5670 5668 5666 5664
5703 5703 5701 5701 5701 5701 5701 5701 5700 5699 5699 5699 5699 5698 5696 5696 5695 5694 5692 5690 5688 5687 5685 5684 5683 5681 5679 5678 5678 5677 5677 5676 5675 5674 5673 5671 5669 5667 5665 5663 5660 5658 5656
5695 5695 5694 5693 5694 5693 5693 5694 5694 5692 5691 5692 5691 5689 5689 5688 5686 5683 5682 5681 5678 5676 5675 5673 5672 5671 5670 5669 5667 5667 5667 5666 5666 5665 5664 5663 5661 5660 5657 5655 5653 5651 5649
5686 5686 5685 5685 5685 5685 5685 5685 5685 5685 5684 5682 5684 5683 5681 5678 5675 5673 5671 5669 5667 5665 5663 5661 5660 5659 5658 5657 5656 5655 5655 5655 5654 5654 5653 5652 5651 5650 5648 5646 5643 5640 5638
5674 5675 5676 5677 5676 5677 5676 5675 5675 5675 5674 5672 5673 5675 5673 5671 5666 5661 5657 5656 5654 5653 5651 5649 5648 5646 5645 5644 5643 5641 5641 5641 5640 5640 5639 5639 5638 5637 5636 5634 5632 5630 5627
5663 5664 5666 5666 5666 5665 5664 5664 5664 5666 5666 5665 5662 5660 5660 5659 5657 5652 5647 5645 5642 5639 5638 5636 5635 5633 5632 5631 5628 5627 5626 5625 5625 5624 5624 5623 5623 5623 5622 5621 5619 5618 5616
5652 5653 5654 5654 5654 5653 5652 5651 5652 5653 5654 5654 5652 5651 5649 5647 5646 5644 5640 5635 5632 5628 5625 5624 5622 5620 5618 5617 5615 5613 5612 5611 5610 5609 5608 5607 5607 5606 5605 5605 5604 5603 5602
5640 5641 5642 5642 5641 5640 5639 5638 5639 5639 5639 5638 5638 5638 5637 5637 5634 5633 5630 5625 5622 5618 5614 5611 5610 5607 5605 5603 5601 5598 5597 5595 5594 5593 5592 5592 5591 5590 5589 5588 5588 5588 5587
5629 5628 5629 5628 5628 5627 5626 5626 5626 5625 5625 5624 5624 5623 5622 5621 5620 5620 5619 5616 5611 5609 5603 5601 5597 5594 5591 5589 5587 5583 5583 5581 5579 5578 5577 5575 5575 5574 5573 5573 5572 5571 5570
5616 5615 5615 5615 5614 5614 5614 5614 5614 5612 5611 5610 5609 5608 5608 5606 5606 5605 5604 5603 5602 5600 5595 5588 5585 5581 5578 5576 5572 5569 5570 5567 5565 5564 5562 5560 5559 5558 5557 5557 5556 5555 5553
5604 5603 5602 5602 5601 5602 5602 5602 5600 5599 5598 5598 5597 5595 5594 5592 5591 5590 5589 5588 5588 5588 5585 5577 5573 5569 5565 5562 5558 5557 5556 5553 5551 5549 5547 5545 5543 5542 5541 5540 5539 5538 5536
5592 5591 5591 5590 5590 5590 5589 5589 5588 5586 5585 5583 5581 5579 5579 5579 5577 5576 5575 5573 5572 5572 5570 5566 5560 5556 5551 5549 5547 5544 5544 5541 5540 5536 5533 5531 5528 5526 5525 5524 5523 5522 5521
5581 5580 5579 5579 5578 5577 5576 5576 5576 5574 5573 5571 5569 5567 5565 5563 5564 5563 5561 5560 5558 5556 5554 5552 5549 5545 5539 5536 5535 5533 5533 5532 5531 5525 5520 5518 5516 5513 5511 5510 5509 5508 5507
5569 5569 5568 5568 5567 5565 5564 5564 5564 5563 5561 5559 5556 5555 5553 5551 5549 5548 5546 5545 5543 5538 5539 5536 5536 5534 5530 5527 5524 5522 5523 5522 5519 5515 5510 5507 5505 5502 5500 5497 5495 5494 5493
5558 5557 5557 5556 5555 5554 5553 5551 5550 5550 5548 5546 5544 5542 5540 5538 5537 5535 5533 5532 5531 5529 5526 5526 5525 5523 5521 5518 5516 5515 5514 5510 5510 5507 5503 5499 5496 5492 5489 5487 5485 5483 5481
5547 5546 5545 5544 5543 5542 5541 5540 5539 5537 5536 5534 5531 5529 5528 5526 5524 5522 5522 5520 5519 5518 5517 5517 5516 5515 5512 5509 5507 5506 5505 5503 5501 5499 5495 5492 5489 5485 5482 5479 5477 5474 5472
5536 5534 5533 5533 5531 5529 5527 5526 5527 5526 5524 5522 5520 5518 5515 5511 5507 5507 5508 5508 5508 5509 5510 5509 5508 5507 5504 5500 5499 5496 5495 5494 5494 5492 5489 5488 5485 5482 5478 5474 5470 5466 5465
5525 5524 5523 5522 5520 5516 5511 5511 5512 5515 5514 5512 5511 5509 5507 5504 5500 5497 5496 5495 5494 5496 5498 5498 5499 5497 5494 5492 5490 5488 5487 5486 5486 5485 5483 5483 5482 5479 5475 5472 5465 5461 5458
5515 5513 5512 5511 5508 5503 5500 5500 5500 5503 5504 5502 5501 5500 5501 5498 5495 5494 5494 5491 5491 5487 5484 5485 5489 5487 5486 5484 5481 5481 5479 5478 5478 5479 5478 5479 5478 5475 5473 5468 5462 5458 5455
5506 5505 5503 5501 5499 5493 5490 5490 5491 5495 5497 5495 5493 5492 5492 5491 5488 5485 5489 5491 5490 5489 5484 5482 5481 5480 5479 5476 5474 5473 5473 5474 5476 5476 5474 5474 5475 5473 5471 5466 5459 5456 5453
5499 5497 5495 5493 5491 5487 5483 5483 5483 5491 5491 5490 5488 5486 5485 5484 5478 5477 5482 5486 5487 5486 5482 5479 5476 5474 5472 5470 5468 5469 5473 5474 5476 5475 5472 5471 5472 5472 5470 5466 5461 5456 5452
5492 5491 5488 5486 5484 5482 5476 5476 5476 5485 5485 5486 5485 5482 5476 5474 5472 5472 5477 5480 5481 5480 5480 5480 5477 5475 5474 5472 5468 5467 5469 5470 5472 5472 5471 5468 5469 5469 5468 5466 5463 5459 5454